Overview Statistics Trail Chart Weather Telemetry Raw packets
 

This is the latest recevied weather packets stored in our database for station/object GW4003. If no packets are shown the sender has not sent any weather packets the latest 10 day(s).

<< 102 103 104 105 106 107 108 >>
Time Temp. Humidity Pressure Rain* Wind** Luminosity Snow
1787863240 31.67° C 23% 1023.4 hPa 0 mm - - -
1787862937 31.67° C 23% 1023.4 hPa 0 mm - - -
1787862633 32.22° C 25% 1023.5 hPa 0 mm - - -
1787862329 32.22° C 24% 1023.7 hPa 0 mm - - -
1787862025 31.67° C 24% 1023.6 hPa 0 mm - - -
1787861722 32.22° C 24% 1023.6 hPa 0 mm - - -
1787861417 31.67° C 26% 1023.7 hPa 0 mm - - -
1787861113 31.67° C 26% 1023.8 hPa 0 mm - - -
1787860810 31.11° C 28% 1023.9 hPa 0 mm - - -
1787860506 31.11° C 25% 1023.9 hPa 0 mm - - -
1787860203 31.11° C 27% 1024 hPa 0 mm - - -
1787859900 31.11° C 27% 1024 hPa 0 mm - - -
1787859595 30.56° C 28% 1023.9 hPa 0 mm - - -
1787859291 30.56° C 29% 1023.9 hPa 0 mm - - -
1787858989 30.56° C 29% 1024 hPa 0 mm - - -
1787858686 30° C 31% 1024 hPa 0 mm - - -
1787858382 29.44° C 32% 1024.1 hPa 0 mm - - -
1787858078 30° C 33% 1024.2 hPa 0 mm - - -
1787857775 29.44° C 35% 1024.2 hPa 0 mm - - -
1787857471 29.44° C 32% 1024.3 hPa 0 mm - - -
1787857167 30° C 34% 1024.3 hPa 0 mm - - -
1787856863 30.56° C 33% 1024.3 hPa 0 mm - - -
1787856560 30° C 34% 1024.3 hPa 0 mm - - -
1787856256 30.56° C 34% 1024.3 hPa 0 mm - - -
1787855953 30° C 34% 1024.4 hPa 0 mm - - -

* Rain latest hour (hover to see other rain measurements)
** Current wind speed in m/s (hover to see current wind gust speed)